Stations météo

réclame
Mon MeteoGroup
Pajala A, Suède (2095): Température de l'air & dewpoint: 15.08.2019 07:00:00 - 21.08.2019 07:00:00 (CEST)Pajala A, Suède (2095): Vitesse du vent & gusts: 15.08.2019 07:00:00 - 21.08.2019 07:00:00 (CEST)Pajala A, Suède (2095): Direction du vent: 15.08.2019 07:00:00 - 21.08.2019 07:00:00 (CEST)Pajala A, Suède (2095): reduced air pressure: 15.08.2019 07:00:00 - 21.08.2019 07:00:00 (CEST)Pajala A, Suède (2095): visibility: 15.08.2019 07:00:00 - 21.08.2019 07:00:00 (CEST)Pajala A, Suède (2095): Quantités de précipitations: 15.08.2019 07:00:00 - 21.08.2019 07:00:00 (CEST)
Date & Time tt [°C] td [°C] ff [km/h] ff [knt] fx [km/h] fx [knt] dd ppp [hPa] vv [km] rr [mm]
21.08.2019 07:00:00 12,6 12,2 7 4 12 7 SSW 1012,1 8 0,0
21.08.2019 06:00:00 12,2 12,0 4 2 6 4 E 1011,6 6 0,0
21.08.2019 05:00:00 11,2 11,0 3 2 6 4 SE 1011,5 4,0 0,0
21.08.2019 04:00:00 11,5 11,3 4 2 8 4 ESE 1011,2 1,4 0,0
21.08.2019 03:00:00 12,4 12,2 5 3 16 8 SSE 1011,0 5 0,0
21.08.2019 02:00:00 12,8 12,6 10 5 19 10 S 1010,8 4,5 0,0
21.08.2019 01:00:00 12,8 12,6 8 4 15 8 S 1010,1 6 0,0
21.08.2019 00:00:00 12,0 11,8 5 3 13 7 SE 1009,9 6 0,0
20.08.2019 23:00:00 12,0 11,5 4 2 14 7 SSE 1010,0 13 0,0
20.08.2019 22:00:00 11,7 11,2 5 3 10 5 S 1009,8 10 0,0
20.08.2019 21:00:00 11,4 10,9 0 0 15 8 N 1009,2 0,5 0,0
20.08.2019 20:00:00 13,3 12,4 4 2 13 7 ESE 1008,9 21 0,0
20.08.2019 19:00:00 13,8 12,9 8 5 15 8 ENE 1008,5 22 0,0
20.08.2019 18:00:00 13,9 12,3 5 3 18 10 SSE 1007,8 18 1,9
20.08.2019 17:00:00 14,6 13,8 5 3 14 7 N 1007,3 7 1,9
20.08.2019 16:00:00 13,1 11,5 10 5 26 14 SSE 1006,5 3,1 4,5
20.08.2019 15:00:00 17,2 11,5 10 5 24 13 SSW 1006,0 36 0,1
20.08.2019 14:00:00 20,1 11,6 12 7 29 16 S 1005,5 40 0,0
20.08.2019 13:00:00 19,0 11,3 12 7 28 15 SSW 1005,4 27 0,0
20.08.2019 12:00:00 18,2 11,3 14 7 27 14 SSW 1005,4 33 0,0
20.08.2019 11:00:00 17,0 11,9 13 7 23 13 SSW 1005,3 28 0,0
20.08.2019 10:00:00 15,8 12,0 13 7 30 16 SSW 1004,9 21 0,0
20.08.2019 09:00:00 14,6 11,9 15 8 25 13 S 1004,7 10 0,0
20.08.2019 08:00:00 13,3 11,5 11 6 19 10 S 1004,3 12 0,0
20.08.2019 07:00:00 13,2 11,8 11 6 26 14 SSW 1003,9 12 0,0
20.08.2019 06:00:00 12,9 12,0 9 5 22 12 S 1003,4 10 0,0
20.08.2019 05:00:00 12,4 11,8 9 5 17 9 S 1002,8 10 0,0
20.08.2019 04:00:00 12,3 11,8 8 5 14 8 SSE 1002,4 9 0,0
20.08.2019 03:00:00 12,5 11,9 9 5 18 10 S 1002,0 11 0,0
20.08.2019 02:00:00 12,6 12,1 11 6 22 12 S 1001,6 9 0,0
20.08.2019 01:00:00 12,7 11,9 8 4 26 14 S 1001,1 12 0,0
20.08.2019 00:00:00 13,3 11,7 14 7 31 17 S 1000,7 8 0,0
19.08.2019 23:00:00 13,5 12,2 15 8 35 19 S 1000,3 11 0,0
19.08.2019 22:00:00 14,1 12,8 16 9 31 17 S 999,8 11 0,0
19.08.2019 21:00:00 14,0 12,9 14 8 35 19 S 999,1 17 0,0
19.08.2019 20:00:00 14,0 12,7 14 8 29 16 S 998,6 14 0,0
19.08.2019 19:00:00 14,0 12,9 14 7 36 19 S 998,1 13 0,0
19.08.2019 18:00:00 14,7 13,6 21 11 45 24 S 997,0 13 0,1
19.08.2019 17:00:00 14,1 13,8 17 9 34 18 SE 996,4 6 0,7
19.08.2019 16:00:00 13,6 13,0 17 9 39 21 SE 996,9 6 0,7
19.08.2019 15:00:00 13,2 12,7 14 8 37 20 ESE 998,0 3,7 0,9
19.08.2019 14:00:00 13,0 12,4 16 8 34 19 ESE 999,1 8 1,4
19.08.2019 13:00:00 12,7 12,4 13 7 26 14 ESE 1000,2 10 4,3
19.08.2019 12:00:00 12,6 12,0 14 8 32 18 ESE 1000,9 16 0,7
19.08.2019 11:00:00 12,3 11,8 13 7 29 15 ESE 1001,9 15 1,6
19.08.2019 10:00:00 12,2 11,7 13 7 31 17 SE 1002,6 8 2,5
19.08.2019 09:00:00 12,6 12,0 13 7 26 14 ESE 1003,0 11 1,3
19.08.2019 08:00:00 12,9 12,1 10 6 23 12 ESE 1003,7 15 0,5
19.08.2019 07:00:00 13,5 12,2 12 6 25 13 ESE 1004,0 9 0,0
19.08.2019 06:00:00 13,3 12,5 9 5 21 11 ESE 1004,6 7 0,0
19.08.2019 05:00:00 13,5 12,9 12 7 28 15 SE 1005,1 9 0,0
19.08.2019 04:00:00 13,9 13,4 10 5 24 13 SE 1005,6 8 0,0
19.08.2019 03:00:00 14,2 13,7 13 7 27 14 SE 1006,0 11 0,0
19.08.2019 02:00:00 14,1 13,8 11 6 27 14 SE 1006,3 12 1,7
19.08.2019 01:00:00 14,1 13,6 13 7 29 16 SE 1006,5 4,7 1,2
19.08.2019 00:00:00 14,0 13,5 12 7 25 14 SE 1006,5 7 0,1
18.08.2019 23:00:00 13,9 13,3 12 7 28 15 SE 1006,6 5 0,2
18.08.2019 22:00:00 13,9 13,1 12 7 27 15 SSE 1006,7 11 0,2
18.08.2019 21:00:00 14,3 13,2 13 7 - - SSE 1006,6 10 0,0
18.08.2019 20:00:00 14,9 13,3 14 7 29 16 SSE 1006,7 12 0,0
18.08.2019 19:00:00 14,9 13,1 13 7 37 20 SSE 1006,8 15 0,0
18.08.2019 18:00:00 15,0 12,5 17 9 41 22 SSE 1007,0 12 0,0
18.08.2019 17:00:00 14,9 11,9 21 11 45 25 S 1006,9 13 0,0
18.08.2019 16:00:00 15,6 12,2 23 12 41 22 S 1006,8 10 0,0
18.08.2019 15:00:00 16,3 11,9 21 11 41 22 SSE 1006,7 13 0,0
18.08.2019 14:00:00 17,0 11,5 22 12 40 22 S 1006,7 20 0,0
18.08.2019 13:00:00 16,9 11,2 21 11 40 22 SSE 1006,7 12 0,0
18.08.2019 12:00:00 16,8 11,7 21 12 37 20 SSE 1006,6 14 0,0
18.08.2019 11:00:00 16,8 11,5 22 12 43 23 SSE 1006,5 13 0,0
18.08.2019 10:00:00 17,1 12,0 23 12 42 23 S 1006,1 9 0,0
18.08.2019 09:00:00 15,9 12,5 17 9 35 19 SSE 1006,1 13 0,0
18.08.2019 08:00:00 14,5 12,4 14 8 33 18 SSE 1006,3 24 0,0
18.08.2019 07:00:00 14,5 12,0 15 8 31 17 SSE 1006,4 12 0,0
18.08.2019 06:00:00 14,3 12,0 16 9 33 18 SSE 1006,2 13 0,0
18.08.2019 05:00:00 13,6 11,5 12 6 27 15 S 1006,4 11 0,0
18.08.2019 04:00:00 13,4 10,9 12 7 32 17 S 1006,3 12 0,0
18.08.2019 03:00:00 13,7 10,7 17 9 34 18 S 1006,2 12 0,0
18.08.2019 02:00:00 13,8 9,8 11 6 35 19 SSE 1006,4 11 0,0
18.08.2019 01:00:00 14,5 12,4 13 7 28 15 SSE 1006,1 15 0,0
18.08.2019 00:00:00 14,4 13,1 12 7 27 14 SSE 1006,1 11 0,0
17.08.2019 23:00:00 14,4 13,1 11 6 26 14 SSE 1006,2 12 0,0
17.08.2019 22:00:00 15,0 13,2 13 7 25 14 SSE 1006,5 15 0,0
17.08.2019 21:00:00 15,2 13,4 12 7 - - SSE 1006,7 12 0,0
17.08.2019 20:00:00 15,4 12,9 9 5 24 13 SE 1006,9 12 0,0
17.08.2019 19:00:00 16,3 12,8 12 6 21 11 SE 1006,8 11 0,0
17.08.2019 18:00:00 17,0 12,9 11 6 28 15 SSE 1006,5 13 0,0
17.08.2019 17:00:00 17,3 14,0 11 6 22 12 SSE 1006,7 13 0,0
17.08.2019 16:00:00 17,0 14,3 12 6 21 12 SSE 1006,8 14 0,0
17.08.2019 15:00:00 16,8 15,1 11 6 18 10 SSE 1007,1 10 0,3
17.08.2019 14:00:00 14,8 14,3 11 6 20 11 SSE 1007,7 4,9 0,8
17.08.2019 13:00:00 14,7 14,1 9 5 20 11 SSE 1007,6 9 0,2
17.08.2019 12:00:00 15,6 13,4 9 5 19 11 S 1007,3 7 0,0
17.08.2019 11:00:00 14,8 12,7 3 1 16 8 SW 1007,4 14 0,0
17.08.2019 10:00:00 14,7 13,2 6 3 14 8 S 1007,3 9 0,0
17.08.2019 09:00:00 13,8 12,7 7 4 13 7 S 1007,6 11 0,0
17.08.2019 08:00:00 12,9 12,1 7 4 15 8 S 1007,4 11 0,2
17.08.2019 07:00:00 12,3 11,7 7 4 21 11 S 1007,7 13 0,6
17.08.2019 06:00:00 12,2 11,3 9 5 20 11 S 1007,3 - 0,0
17.08.2019 05:00:00 11,7 11,1 7 4 16 9 S 1007,3 11 0,0
17.08.2019 04:00:00 11,8 11,0 8 4 13 7 S 1007,1 12 0,0
17.08.2019 03:00:00 11,5 11,2 5 3 11 6 SSE 1007,1 - 0,0
17.08.2019 02:00:00 12,0 11,4 6 4 16 9 SSE 1006,9 10 0,0
17.08.2019 01:00:00 12,5 11,9 9 5 18 10 SSE 1007,0 10 0,0
17.08.2019 00:00:00 12,7 12,1 10 6 18 10 SSE 1007,1 17 0,1
16.08.2019 23:00:00 12,7 12,2 5 3 10 5 SSE 1007,4 11 0,1
16.08.2019 22:00:00 13,0 12,4 6 3 19 10 SSE 1007,4 11 0,1
16.08.2019 21:00:00 13,2 12,4 8 5 16 8 SSE 1007,1 - 0,0
16.08.2019 20:00:00 13,9 12,9 7 4 13 7 SSE 1007,2 10 0,0
16.08.2019 19:00:00 13,9 13,1 4 2 15 8 NNW 1007,3 9 0,0
16.08.2019 18:00:00 13,3 12,5 3 2 14 7 W 1007,4 11 0,4
16.08.2019 17:00:00 13,9 12,6 11 6 24 13 W 1007,3 12 4,1
16.08.2019 16:00:00 15,0 13,0 3 1 21 11 SE 1007,3 9 1,2
16.08.2019 15:00:00 17,3 11,3 11 6 22 12 SSE 1007,2 12 0,0
16.08.2019 14:00:00 17,6 11,8 10 5 22 12 SE 1007,3 10 0,0
16.08.2019 13:00:00 16,1 11,3 8 5 17 9 S 1007,7 17 0,0
16.08.2019 12:00:00 15,2 10,6 9 5 20 11 S 1007,7 21 0,0
16.08.2019 11:00:00 15,1 11,3 6 3 13 7 SSE 1007,6 18 0,0
16.08.2019 10:00:00 13,8 10,8 6 3 14 8 ESE 1007,6 17 0,0
16.08.2019 09:00:00 12,9 11,0 2 1 8 4 E 1007,5 15 0,0
16.08.2019 08:00:00 11,6 10,0 4 2 9 5 ESE 1007,5 - 0,0
16.08.2019 07:00:00 10,6 9,8 6 3 10 5 ENE 1007,3 8 0,0
16.08.2019 06:00:00 9,8 9,7 6 3 8 4 NNE 1007,2 7 0,0
16.08.2019 05:00:00 6,2 6,1 2 1 4 2 NNW 1007,3 4,8 0,0
16.08.2019 04:00:00 3,1 3,0 2 1 6 3 NNE 1007,2 4,3 0,0
16.08.2019 03:00:00 4,2 3,9 4 2 8 4 NE 1006,7 5 0,0
16.08.2019 02:00:00 5,3 5,0 3 2 4 2 N 1006,3 1,6 0,0
16.08.2019 01:00:00 8,0 7,6 0 0 13 7 N 1005,7 1,5 0,0
16.08.2019 00:00:00 10,3 9,5 10 5 15 8 NE 1005,0 8 0,0
15.08.2019 23:00:00 10,8 10,6 7 4 11 6 NE 1004,5 6 0,0
15.08.2019 22:00:00 10,6 10,4 4 2 9 5 N 1004,1 1,8 0,0
15.08.2019 21:00:00 12,1 11,8 4 2 9 5 NW 1003,4 2,6 0,0
15.08.2019 20:00:00 13,0 11,9 4 2 24 13 NNW 1003,0 22 1,1
15.08.2019 19:00:00 13,9 10,5 23 12 36 19 NNW 1002,8 2,6 0,2
15.08.2019 18:00:00 18,4 10,0 5 3 14 8 N 1001,6 13 0,0
15.08.2019 17:00:00 18,4 9,7 8 5 19 10 N 1001,3 12 0,0
15.08.2019 16:00:00 17,0 9,9 12 7 27 15 NNE 1001,5 13 0,0
15.08.2019 15:00:00 17,6 10,9 11 6 19 10 N 1001,3 12 0,0
15.08.2019 14:00:00 16,4 11,1 9 5 22 12 N 1001,4 12 0,0
15.08.2019 13:00:00 15,6 12,2 11 6 18 10 N 1001,5 20 0,0
15.08.2019 12:00:00 14,7 12,2 10 5 17 9 NNE 1001,7 23 0,0
15.08.2019 11:00:00 14,8 11,8 9 5 16 9 NNE 1001,6 27 0,0
15.08.2019 10:00:00 14,6 12,5 4 2 18 10 NE 1001,5 22 0,0
15.08.2019 09:00:00 13,7 12,4 12 6 21 11 NE 1001,7 19 0,0
15.08.2019 08:00:00 13,1 12,2 13 7 21 12 NE 1001,6 20 0,0
15.08.2019 07:00:00 12,8 12,3 10 5 19 11 NE 1001,5 12 0,0

tt = Température de l'air
td = dewpoint
ff = Vitesse du vent
fx = gusts
dd = Direction du vent
ppp = reduced air pressure
vv = visibility
rr = Quantités de précipitations

stations d'obs. à proximité